World > North America > United States > Wyoming > Fort Bridger  

Fort Bridger, WY Hourly Weather Updates

Feedback E-mail the Weather

Quick Clicks

Fort Bridger, WY Weather Maps

°F °C°F °C
Fort Bridger Weather Map
UTC Time: 4/17/2024, 04:56
Your Time:

Fort Bridger, WY Regional Weather

Expires:202404170500;;877040
ASUS45 KCYS 170410
RWRWY 

WYOMING REGIONAL WEATHER ROUNDUP
NATIONAL WEATHER SERVICE CHEYENNE WY
1000 PM MDT TUE APR 16 2024

NOTE:  "FAIR" INDICATES FEW OR NO CLOUDS BELOW 12,000 FEET
WITH NO SIGNIFICANT WEATHER AND/OR OBSTRUCTIONS TO VISIBILITY.


WYZ021-027>030-104>119-170500-
SOUTHERN WYOMING
  
CITY           SKY/WX    TMP DP  RH WIND       PRES   REMARKS
EVANSTON       FAIR      43  26  51 SW10      30.06S                  
KEMMERER       FAIR      41  25  52 W8        30.06S                  
ROCK SPRINGS   FAIR      46  25  43 W13       30.05R                  
DIXON          MOCLDY    44  30  57 S6        30.06R                  
RAWLINS        FAIR      47  25  42 SW18      30.00R                  
SARATOGA       FAIR      41  28  60 W6        30.03R                  
LARAMIE        FAIR      43  26  51 NW10      29.97R                  
CHEYENNE       FAIR      53  27  36 W10       29.93R                  
TORRINGTON     FAIR      52  29  41 NW5       29.83R                  
PINE BLUFFS      N/A     46  32  57 W5        29.90R                  

$$
  

SKY/WX - Weather  TMP - Temperature  DP - Dew Point  RH - Humidity
WIND - Wind Direction/Speed PRES - Barometric Pressure VSB - Visibility
WCI - Wind Chill Index E13G22 Wind - East Wind 13 mph/Gusts of 22 mph

Trending Headlines

Trending Entertainment Headlines

Fort Bridger Radar Loop

Use the map search tool if you want to place a location marker on the radar map...

Fort Bridger Quick Facts

National Two Day Weather Forecast


E-mail the Fort Bridger Weather Forecast

Voice your opinion or tell us about page issues...